• In Uzbekistan
  • List of Countries
  • For 7 days
  • Water Temperature
  • Satellite Maps
  • Weather Map
  • Weather Widgets
  • user-avatar
    Login

    Hourly Weather Islamabad

    Today, 18 November, Saturday

    Time Temperature Precipitation Wind Pressure Humidity
    00:00 +14°C° 0 mm 2 mps 718 mmHg 35%
    01:00 +14°C° 0 mm 2 mps 718 mmHg 35%
    02:00 +12°C° 0 mm 3 mps 718 mmHg 34%
    03:00 +12°C° 0 mm 3 mps 718 mmHg 35%
    04:00 +12°C° 0 mm 3 mps 718 mmHg 35%
    05:00 +13°C° 0 mm 2 mps 717 mmHg 36%
    06:00 +14°C° 0 mm 2 mps 717 mmHg 37%
    07:00 +14°C° 0 mm 2 mps 718 mmHg 37%
    08:00 +15°C° 0 mm 2 mps 718 mmHg 37%
    09:00 +17°C° 0 mm 2 mps 719 mmHg 33%
    10:00 +19°C° 0 mm 2 mps 719 mmHg 29%
    11:00 +21°C° 0 mm 2 mps 719 mmHg 24%
    12:00 +23°C° 0 mm 2 mps 719 mmHg 24%
    13:00 +23°C° 0 mm 2 mps 719 mmHg 24%
    14:00 +23°C° 0 mm 2 mps 718 mmHg 24%
    15:00 +21°C° 0 mm 2 mps 718 mmHg 26%
    16:00 +20°C° 0 mm 2 mps 718 mmHg 29%
    17:00 +19°C° 0 mm 2 mps 718 mmHg 32%
    18:00 +18°C° 0 mm 2 mps 719 mmHg 33%
    19:00 +17°C° 0 mm 2 mps 719 mmHg 34%
    20:00 +16°C° 0 mm 3 mps 719 mmHg 35%
    21:00 +14°C° 0 mm 3 mps 719 mmHg 35%
    22:00 +14°C° 0 mm 3 mps 719 mmHg 35%
    23:00 +14°C° 0 mm 3 mps 719 mmHg 35%

    Tomorrow, 19 November, Sunday

    Time Temperature Precipitation Wind Pressure Humidity
    00:00 +13°C° 0 mm 3 mps 719 mmHg 36%
    01:00 +13°C° 0 mm 3 mps 719 mmHg 36%
    02:00 +13°C° 0 mm 3 mps 719 mmHg 37%
    03:00 +12°C° 0 mm 3 mps 719 mmHg 37%
    04:00 +12°C° 0 mm 3 mps 719 mmHg 37%
    05:00 +12°C° 0 mm 3 mps 719 mmHg 37%
    06:00 +12°C° 0 mm 3 mps 719 mmHg 36%
    07:00 +13°C° 0 mm 3 mps 719 mmHg 34%
    08:00 +13°C° 0 mm 3 mps 720 mmHg 33%
    09:00 +16°C° 0 mm 3 mps 720 mmHg 28%
    10:00 +19°C° 0 mm 2 mps 720 mmHg 23%
    11:00 +21°C° 0 mm 2 mps 721 mmHg 19%
    12:00 +23°C° 0 mm 2 mps 720 mmHg 18%
    13:00 +23°C° 0 mm 2 mps 720 mmHg 17%
    14:00 +24°C° 0 mm 3 mps 719 mmHg 16%
    15:00 +21°C° 0 mm 2 mps 719 mmHg 19%
    16:00 +20°C° 0 mm 2 mps 719 mmHg 21%
    17:00 +18°C° 0 mm 2 mps 718 mmHg 24%
    18:00 +17°C° 0 mm 2 mps 719 mmHg 24%
    19:00 +17°C° 0 mm 2 mps 719 mmHg 25%
    20:00 +16°C° 0 mm 3 mps 719 mmHg 25%
    21:00 +14°C° 0 mm 3 mps 719 mmHg 25%
    22:00 +14°C° 0 mm 3 mps 719 mmHg 26%
    23:00 +13°C° 0 mm 3 mps 719 mmHg 26%

    Day after tomorrow, 20 November, Monday

    Time Temperature Precipitation Wind Pressure Humidity
    00:00 +13°C° 0 mm 3 mps 719 mmHg 26%
    01:00 +13°C° 0 mm 3 mps 719 mmHg 26%
    02:00 +12°C° 0 mm 3 mps 719 mmHg 26%
    03:00 +12°C° 0 mm 3 mps 719 mmHg 26%
    04:00 +12°C° 0 mm 3 mps 718 mmHg 26%
    05:00 +11°C° 0 mm 3 mps 718 mmHg 26%
    06:00 +12°C° 0 mm 3 mps 719 mmHg 26%
    07:00 +13°C° 0 mm 3 mps 719 mmHg 26%
    08:00 +13°C° 0 mm 3 mps 719 mmHg 26%
    09:00 +17°C° 0 mm 3 mps 720 mmHg 22%
    10:00 +19°C° 0 mm 2 mps 720 mmHg 19%
    11:00 +21°C° 0 mm 2 mps 720 mmHg 15%
    12:00 +23°C° 0 mm 2 mps 720 mmHg 15%
    13:00 +24°C° 0 mm 3 mps 719 mmHg 14%
    14:00 +24°C° 0 mm 3 mps 719 mmHg 14%
    15:00 +21°C° 0 mm 3 mps 718 mmHg 16%
    16:00 +20°C° 0 mm 2 mps 718 mmHg 18%
    17:00 +18°C° 0 mm 2 mps 718 mmHg 21%
    18:00 +17°C° 0 mm 2 mps 718 mmHg 21%
    19:00 +16°C° 0 mm 2 mps 718 mmHg 21%
    20:00 +16°C° 0 mm 2 mps 719 mmHg 21%
    21:00 +15°C° 0 mm 2 mps 719 mmHg 21%
    22:00 +14°C° 0 mm 3 mps 719 mmHg 21%
    23:00 +13°C° 0 mm 3 mps 719 mmHg 22%

    21 November, Tuesday

    Time Temperature Precipitation Wind Pressure Humidity
    00:00 +13°C° 0 mm 3 mps 718 mmHg 22%
    01:00 +12°C° 0 mm 3 mps 718 mmHg 22%
    02:00 +12°C° 0 mm 3 mps 718 mmHg 22%
    03:00 +12°C° 0 mm 3 mps 718 mmHg 22%
    04:00 +11°C° 0 mm 3 mps 717 mmHg 22%
    05:00 +11°C° 0 mm 3 mps 717 mmHg 21%
    06:00 +12°C° 0 mm 3 mps 718 mmHg 22%
    07:00 +12°C° 0 mm 3 mps 718 mmHg 22%
    08:00 +13°C° 0 mm 3 mps 718 mmHg 22%
    09:00 +16°C° 0 mm 3 mps 718 mmHg 19%
    10:00 +19°C° 0 mm 2 mps 719 mmHg 16%
    11:00 +21°C° 0 mm 2 mps 719 mmHg 13%
    12:00 +23°C° 0 mm 2 mps 718 mmHg 13%
    13:00 +24°C° 0 mm 3 mps 718 mmHg 12%
    14:00 +24°C° 0 mm 3 mps 717 mmHg 12%
    15:00 +21°C° 0 mm 2 mps 717 mmHg 14%
    16:00 +19°C° 0 mm 2 mps 716 mmHg 17%
    17:00 +18°C° 0 mm 2 mps 716 mmHg 19%
    18:00 +17°C° 0 mm 2 mps 716 mmHg 19%
    19:00 +16°C° 0 mm 2 mps 717 mmHg 19%
    20:00 +15°C° 0 mm 2 mps 717 mmHg 19%
    21:00 +15°C° 0 mm 2 mps 717 mmHg 19%
    22:00 +14°C° 0 mm 2 mps 717 mmHg 19%
    23:00 +14°C° 0 mm 2 mps 717 mmHg 19%

    22 November, Wednesday

    Time Temperature Precipitation Wind Pressure Humidity
    00:00 +13°C° 0 mm 2 mps 717 mmHg 19%
    01:00 +13°C° 0 mm 2 mps 717 mmHg 19%
    02:00 +12°C° 0 mm 3 mps 717 mmHg 19%
    03:00 +11°C° 0 mm 3 mps 717 mmHg 19%
    04:00 +11°C° 0 mm 3 mps 716 mmHg 19%
    05:00 +11°C° 0 mm 3 mps 716 mmHg 19%
    06:00 +11°C° 0 mm 3 mps 717 mmHg 19%
    07:00 +13°C° 0 mm 2 mps 717 mmHg 20%
    08:00 +14°C° 0 mm 2 mps 717 mmHg 20%
    09:00 +16°C° 0 mm 2 mps 718 mmHg 17%
    10:00 +19°C° 0 mm 2 mps 718 mmHg 14%
    11:00 +23°C° 0 mm 2 mps 718 mmHg 12%
    12:00 +23°C° 0 mm 2 mps 718 mmHg 11%
    13:00 +24°C° 0 mm 3 mps 717 mmHg 11%
    14:00 +25°C° 0 mm 3 mps 717 mmHg 11%
    15:00 +23°C° 0 mm 2 mps 717 mmHg 13%
    16:00 +20°C° 0 mm 2 mps 716 mmHg 15%
    17:00 +18°C° 0 mm 2 mps 716 mmHg 18%
    18:00 +17°C° 0 mm 2 mps 716 mmHg 18%
    19:00 +16°C° 0 mm 2 mps 717 mmHg 18%
    20:00 +15°C° 0 mm 2 mps 717 mmHg 18%
    21:00 +15°C° 0 mm 2 mps 717 mmHg 17%
    22:00 +14°C° 0 mm 2 mps 717 mmHg 17%
    23:00 +14°C° 0 mm 2 mps 717 mmHg 17%

    23 November, Thursday

    Time Temperature Precipitation Wind Pressure Humidity
    00:00 +14°C° 0 mm 2 mps 716 mmHg 16%
    01:00 +13°C° 0 mm 2 mps 716 mmHg 16%
    02:00 +13°C° 0 mm 2 mps 716 mmHg 15%
    03:00 +13°C° 0 mm 2 mps 716 mmHg 15%
    04:00 +13°C° 0 mm 2 mps 715 mmHg 15%
    05:00 +12°C° 0 mm 2 mps 715 mmHg 15%
    06:00 +13°C° 0 mm 2 mps 716 mmHg 15%
    07:00 +14°C° 0 mm 2 mps 716 mmHg 15%
    08:00 +14°C° 0 mm 2 mps 716 mmHg 16%
    09:00 +17°C° 0 mm 2 mps 717 mmHg 14%
    10:00 +19°C° 0 mm 2 mps 717 mmHg 12%
    11:00 +21°C° 0 mm 2 mps 717 mmHg 10%
    12:00 +23°C° 0 mm 2 mps 717 mmHg 10%
    13:00 +24°C° 0 mm 2 mps 716 mmHg 10%
    14:00 +24°C° 0 mm 2 mps 716 mmHg 10%
    15:00 +21°C° 0 mm 2 mps 716 mmHg 12%
    16:00 +20°C° 0 mm 1 mps 715 mmHg 14%
    17:00 +19°C° 0 mm 1 mps 715 mmHg 17%
    18:00 +18°C° 0 mm 1 mps 715 mmHg 17%
    19:00 +16°C° 0 mm 1 mps 716 mmHg 17%
    20:00 +16°C° 0 mm 1 mps 716 mmHg 17%
    21:00 +15°C° 0 mm 1 mps 716 mmHg 16%
    22:00 +15°C° 0 mm 2 mps 716 mmHg 16%
    23:00 +14°C° 0 mm 2 mps 716 mmHg 16%
    Show more